Location: Balovani
(42.1339°N, 44.3281°E)
Time: 12:04:19
(UTC+00:00)

Daily predictions for brighter satellites

Satellite Brightness Start Highest point End
(mag) Time Altitude Azimuth Time Altitude Azimuth Time Altitude Azimuth
Cosmos 2218 Rocket 4.1 16:11:32 10° SSE 16:17:28 55° E 16:23:27 10° NNE
Cosmos 2237 Rocket 2.2 16:12:16 10° SSW 16:17:57 83° ESE 16:23:40 10° NNE
Terra 3.3 16:16:07 10° ESE 16:19:25 20° ENE 16:22:45 10° NNE
COSMO-SKYMED 1 4.4 16:15:51 10° N 16:19:36 35° WNW 16:23:21 10° SW
Cosmos 1980 3.8 16:14:15 10° SSW 16:19:54 88° WNW 16:25:35 10° NNE
Cosmos 1733 Rocket 3.5 16:16:39 10° SSE 16:20:42 39° E 16:24:48 10° NNE
PSLV R/B 4.2 16:17:52 10° S 16:21:52 56° W 16:25:57 10° NNW
Meteor 1-21 Rocket 4.3 16:17:00 10° N 16:22:40 65° ENE 16:28:25 10° SSE
Cosmos 2242 Rocket 4.3 16:18:47 10° N 16:22:53 35° ENE 16:26:56 10° SE
CZ-4B R/B 4.4 16:21:44 10° SE 16:25:10 36° ENE 16:28:45 10° N
CSL-04 Rocket 3.9 16:19:51 10° SSE 16:25:13 54° ENE 16:30:37 10° N
Resurs 01 Rocket 2.8 16:21:51 10° S 16:26:02 44° W 16:30:14 10° NNW
SJ-6B 3.0 16:24:50 10° S 16:28:27 66° W 16:32:03 10° NNW
Helios 1A Rocket 3.2 16:26:12 10° NE 16:29:00 27° E 16:31:45 10° SSE
USA 59 Rocket 0.3 16:28:57 10° NNW 16:32:20 44° NE 16:36:40 10° SE
BREEZE-M DEB (TANK) 4.0 16:36:01 10° W 16:38:40 40° SSW 16:46:43 10° SE
Cosmos 1943 Rocket 3.0 16:33:45 10° NNW 16:39:13 52° WSW 16:44:39 10° S
OAO 3 Rocket 4.1 16:36:55 10° WSW 16:41:04 33° S 16:44:41 13° SE
Cosmos 1346 Rocket 3.9 16:41:42 10° NNE 16:44:38 23° ENE 16:46:36 15° ESE
Cosmos 1400 Rocket 2.4 16:43:33 10° S 16:47:06 67° E 16:50:42 10° NNE
Cosmos 2369 Rocket 3.6 16:43:22 10° N 16:47:45 23° NE 16:51:26 13° E
USA 234 3.4 16:41:58 10° ENE 16:48:19 51° SE 16:54:39 10° SSW
SL-4 R/B 3.2 16:45:54 10° S 16:48:37 19° SE 16:50:14 15° E
ADEOS 4.3 16:45:06 12° SE 16:49:28 37° ENE 16:54:13 10° N
Meteor 1-31 Rocket 2.4 16:48:11 10° SSE 16:51:41 75° ENE 16:55:12 10° N
Aureole 3 4.2 16:49:56 10° N 16:55:14 73° E 17:01:26 10° SSE
Meteor 2-21 4.4 16:51:26 10° N 16:57:37 76° E 17:03:48 10° SSE
SL-08 R/B 4.0 16:54:15 10° NNE 16:58:47 36° E 17:03:14 10° SSE
Meteor 1-11 4.1 16:53:35 10° N 16:59:07 81° E 17:04:38 10° SSE
Cosmos 1812 0.4 17:00:40 41° SSW 17:01:07 84° W 17:02:46 10° N
Cosmos 1943 4.5 17:00:13 17° ESE 17:01:37 19° E 17:05:25 10° ENE
USA 238 DEB 4.4 16:56:08 10° NW 17:03:36 64° WSW 17:11:38 10° SSE
USA 238 4.4 16:56:18 10° NW 17:03:47 65° WSW 17:11:50 10° SSE
CZ-4B DEB 4.2 16:58:46 10° SSE 17:04:13 77° ENE 17:09:44 10° N
RESURS DK-1 4.0 17:00:36 10° SW 17:04:16 36° WNW 17:07:57 10° N
CZ-4B R/B 3.4 17:00:00 14° SE 17:04:46 55° ENE 17:10:17 10° N
USA 32 4.2 16:59:51 10° S 17:05:03 80° W 17:10:20 10° N
Cosmos 2278 Rocket 3.5 17:00:17 10° NW 17:05:31 39° WSW 17:10:43 10° S
Cosmos 2221 Rocket 4.5 17:02:02 10° NNE 17:05:58 31° ENE 17:07:55 22° ESE
Cosmos 614 Rocket 4.2 17:04:37 10° NNW 17:09:45 71° WSW 17:14:44 10° S
SL-24 R/B 4.1 17:06:00 10° NNE 17:10:38 69° ESE 17:14:50 10° S
NOSS 2-1 (D) 3.3 17:08:02 10° NW 17:11:36 88° WSW 17:14:32 22° SSE
USA 186 3.6 17:13:44 11° NE 17:13:44 11° NE 17:13:57 10° NE
SKYMED 3 4.3 17:09:08 10° NNE 17:12:59 56° E 17:16:43 10° S
Cosmos 1125 Rocket 4.5 17:09:24 10° SW 17:14:28 50° WNW 17:19:36 10° N
SL-8 R/B 4.0 17:10:02 10° WSW 17:14:44 67° NNW 17:19:26 10° ENE
OAO 2 Rocket 4.0 17:10:18 10° WSW 17:15:02 37° S 17:17:21 24° SE
HBTSS-SV1 4.5 17:11:54 10° WSW 17:16:17 65° S 17:18:44 25° E
ERS-1 Rocket 2.9 17:14:11 14° SSE 17:18:26 82° ENE 17:23:28 10° NNW
NOSS 2-1 (E) 3.2 17:16:08 10° NW 17:19:41 83° NE 17:21:59 27° SE
Cosmos 405 Rocket 4.5 17:19:41 10° NE 17:20:14 12° NE 17:20:14 12° NE
Cosmos 2292 Rocket 3.1 17:20:11 10° N 17:24:13 61° E 17:25:24 37° SE
NOSS 2-1 (C) 3.4 17:22:04 10° NW 17:25:39 75° SW 17:27:59 27° SSE
Cosmos 2298 Rocket 4.0 17:20:58 10° S 17:26:11 64° ESE 17:31:27 10° NNE
SL-08 R/B 4.4 17:22:09 10° S 17:28:12 65° E 17:34:14 10° NNE
Cosmos 1674 Rocket 3.5 17:24:05 10° N 17:28:26 86° W 17:31:20 21° S
IRS-1A Rocket 4.3 17:26:00 23° SSE 17:29:37 68° ENE 17:35:19 10° N
MetOp-B 4.1 17:26:10 17° SSE 17:30:20 88° W 17:35:44 10° NNW
Cosmos 1727 Rocket 4.0 17:24:08 10° N 17:30:29 85° W 17:36:17 12° S
Cosmos 1934 Rocket 4.1 17:25:57 16° SSE 17:30:49 53° E 17:36:49 10° NNE
Okean-O 3.0 17:29:53 33° ESE 17:31:16 44° ENE 17:35:27 10° N
Cosmos 44 3.7 17:26:48 10° SW 17:31:47 69° NW 17:37:05 10° NNE
SL-16 R/B 2.2 17:28:15 10° SSW 17:33:54 87° WNW 17:39:36 10° NNE
Cosmos 1908 Rocket 3.4 17:31:49 20° S 17:34:47 74° E 17:39:06 10° NNE
Ariane Rocket 4.3 17:37:05 22° E 17:38:04 23° ENE 17:41:59 10° NNE
Okean O Rocket 1.7 17:38:37 40° SE 17:39:53 58° ENE 17:44:09 10° N
Geosat 3.8 17:37:59 10° NNE 17:43:00 76° ESE 17:47:59 10° SSW
MOS 1-B 4.4 17:40:22 31° SE 17:43:12 66° ENE 17:48:56 10° N
NOSS 3-1 (C) 4.3 17:36:51 10° NNW 17:43:51 56° NE 17:48:24 29° ESE
Cosmos 1782 Rocket 3.7 17:44:43 44° ESE 17:45:00 45° E 17:49:08 10° NNE
Spot 2 Rocket 3.4 17:43:12 36° SSE 17:45:15 70° ENE 17:50:15 10° N
CZ-4 R/B 3.3 17:44:27 10° SSW 17:47:30 24° W 17:50:33 10° NW
Cosmos 1140 Rocket 4.2 17:47:20 10° N 17:52:03 36° ENE 17:52:57 33° E
Cosmos 1656 Rocket 4.2 17:47:37 10° NNW 17:52:57 55° WSW 17:56:02 25° S
USA 245 4.3 17:52:19 40° E 17:53:14 45° ENE 17:58:24 10° N
Terra 2.6 17:53:33 19° SSW 17:56:36 46° W 18:01:07 10° NNW
Cosmos 1025 Rocket 3.9 17:53:23 10° NNW 17:57:29 46° W 17:59:42 24° SSW
Cosmos 2123 Rocket 3.9 17:52:54 10° N 17:59:14 89° E 18:02:27 31° S
Cosmos 1300 Rocket 3.7 18:11:23 48° SW 18:12:27 69° W 18:16:44 10° N
COSMOS 2455 3.8 18:08:12 10° NNW 18:13:35 33° NE 18:15:03 29° ENE
Cosmos 1535 Rocket 4.3 18:16:01 45° S 18:18:00 77° E 18:24:09 10° N
Cosmos 2058 4.1 18:14:28 10° N 18:16:50 29° NE 18:16:50 29° NE
Cosmos 1605 Rocket 3.8 18:18:22 49° SSE 18:20:03 74° E 18:26:10 10° N
USA 59 Rocket 2.3 18:18:10 10° WNW 18:20:54 17° WSW 18:22:13 16° SW
ASTEX 1 4.2 18:20:30 29° SSW 18:22:35 46° W 18:27:20 10° NNW
Gbstr 26 Del rocket 3.1 18:18:42 10° SW 18:23:57 87° NNW 18:24:22 74° NE
SL-4 R/B 3.3 18:21:50 10° WSW 18:23:55 30° WSW 18:23:55 30° WSW
Cosmos 2297 3.8 18:21:58 10° NNW 18:27:41 72° WSW 18:28:49 56° S
SPOT 3 Rocket 3.4 18:27:44 74° SE 18:28:12 84° ENE 18:33:24 10° NNW
SJ 16-02 3.4 18:25:36 10° NNE 18:27:33 16° NE 18:27:33 16° NE
USA 234 4.0 18:25:01 10° NE 18:31:20 53° NNW 18:37:38 10° WSW
Cosmos 2369 Rocket 2.5 18:26:39 10° NNW 18:32:08 57° WSW 18:33:13 49° SSW
Cosmos 1315 Rocket 3.7 18:34:16 44° NNW 18:34:16 44° NNW 18:37:08 10° N
Fengyun 1C 4.5 18:38:49 73° ENE 18:38:49 73° ENE 18:44:01 10° N
Cosmos 1603 4.2 18:44:25 45° ENE 18:44:25 45° ENE 18:48:37 10° NNE
NOSS 3-1 (A) 4.3 18:36:25 10° NNW 18:43:35 61° NE 18:45:58 46° ESE
Cosmos 1943 3.5 18:41:48 26° SW 18:45:03 63° WNW 18:50:42 10° NNE
Lacrosse 5 rocket 3.7 18:45:31 10° N 18:46:17 12° N 18:46:17 12° N
IRS-1C Rocket 4.1 18:50:49 76° WSW 18:50:49 76° WSW 18:56:08 10° NNW
Cosmos 2346 Rocket 4.3 18:45:24 10° N 18:51:36 84° W 18:52:18 72° SSW
Cosmos 921 Rocket 3.9 18:50:21 10° NNW 18:53:31 47° NNW 18:53:31 47° NNW
Cosmos 2100 Rocket 4.4 18:57:23 47° ENE 18:57:23 47° ENE 19:02:30 10° NNE
Cosmos 1975 Rocket 4.1 18:55:26 10° NNW 18:58:58 43° WNW 18:58:58 43° WNW
Okean O Rocket 4.2 19:15:51 13° W 19:16:25 13° W 19:18:22 10° WNW
Ariane Rocket 3.9 19:17:09 42° W 19:17:09 42° W 19:21:27 10° NNW
Cosmos 1656 4.5 19:17:15 10° NNW 19:21:34 42° NNE 19:21:34 42° NNE
ATLAS 5 CENTAUR R/B 3.3 19:29:37 10° NNW 19:31:56 31° N 19:31:56 31° N
Cosmos 1725 Rocket 4.4 19:39:35 54° NE 19:39:35 54° NE 19:44:34 10° NNE
Cosmos 1459 Rocket 4.2 19:42:24 71° NNW 19:42:24 71° NNW 19:48:03 10° N
Cosmos 1818 4.5 19:38:37 10° NNW 19:42:40 45° N 19:42:40 45° N
BREEZE-M DEB (TANK) 4.4 19:41:03 10° WNW 19:43:55 42° WSW 19:43:55 42° WSW
ATLAS 2AS CENTAUR R/B 3.7 19:50:46 35° ENE 19:50:46 35° ENE 19:54:45 10° NE
Cosmos 1802 Rocket 4.3 19:56:06 63° N 19:56:06 63° N 20:01:18 10° N
BREEZE-M DEB (TANK) 4.4 19:55:11 10° WNW 20:17:42 - ESE 19:58:00 55° NW
COSMOS 2455 3.8 19:53:57 10° NW 19:58:10 39° WNW 19:58:10 39° WNW
SJ 16-02 3.8 20:02:44 10° NNW 20:04:02 19° NW 20:04:02 19° NW
Cosmos 2016 Rocket 4.4 20:10:38 60° NNW 20:10:38 60° NNW 20:15:49 10° N
SeaSat 1 4.0 20:17:06 33° NNW 20:17:06 33° NNW 20:19:46 10° NNW
Cosmos 1697 Rocket 3.9 20:19:53 10° NNW 20:23:43 39° NNE 20:23:43 39° NNE
Cosmos 1980 Rocket 3.6 20:40:45 10° N 20:44:56 33° NE 20:44:56 33° NE
ATLAS 3B R/B 3.2 21:00:34 10° NNW 21:08:17 61° NE 21:08:29 61° ENE
BREEZE-M DEB (TANK) 4.2 21:06:25 10° W 21:15:14 56° N 21:20:07 10° ENE
Cosmos 1833 Rocket 4.1 21:19:39 32° NNW 21:19:39 32° NNW 21:23:37 10° N
Cosmos 2082 Rocket 3.7 21:21:03 31° NE 21:21:03 31° NE 21:24:07 10° NE
CZ-2C R/B 4.4 21:25:01 10° N 21:28:17 37° N 21:28:17 37° N
USA 229 DEB 4.1 21:26:41 10° NW 21:33:11 67° WNW 21:33:11 67° WNW
USA 229 4.1 21:26:44 10° NW 21:33:18 68° WNW 21:33:18 68° WNW
ATLAS 2AS CENTAUR R/B 3.8 21:38:08 34° WNW 21:39:14 36° NW 21:45:28 10° NNE
SL-16 R/B 4.1 21:39:49 10° N 21:44:21 24° NE 21:46:04 21° ENE
CZ-2C R/B 4.1 21:47:41 32° NW 21:47:41 32° NW 21:50:37 10° NNW
ACS3 Solar Sail 2.2 21:56:15 10° NNE 22:01:13 55° NE 22:01:13 55° NE
IDEFIX/ARIANE 42P 4.1 22:02:13 10° NNE 22:05:39 29° ENE 22:05:39 29° ENE
USA 281 4.1 22:13:28 29° ESE 22:16:15 44° ENE 22:22:23 10° NNW
CZ-4C R/B 3.3 22:20:44 32° N 22:20:44 32° N 22:24:06 10° NNE
CZ-3 Stage 3 4.4 22:31:40 23° SE 22:31:40 23° SE 22:38:36 10° E
Cosmos 1980 Rocket 4.1 22:24:45 10° NW 22:26:39 20° NW 22:26:39 20° NW
Cosmos 2026 Rocket 4.5 22:24:12 10° NNW 22:29:09 52° NW 22:29:09 52° NW
COSMOS 2406 3.5 22:38:43 64° N 22:38:43 64° N 22:43:37 10° NNE
CZ-2D R/B 4.3 22:34:59 10° NE 22:38:09 16° E 22:39:39 14° ESE
NOSS 3-3 (A) 4.0 22:42:46 63° NNE 22:42:46 63° NNE 22:47:50 10° NE
Cosmos 1092 Rocket 4.5 22:39:21 10° NNW 22:44:06 47° NW 22:44:06 47° NW
Cosmos 1486 Rocket 4.4 22:47:35 10° NNW 22:52:00 61° NNE 22:52:00 61° NNE
MSX 3.8 22:50:42 10° NNE 22:56:15 83° N 22:56:15 83° N
FENGYUN 3A 3.8 22:51:07 10° NNE 22:56:17 69° E 22:56:17 69° E
Cosmos 2360 Rocket 3.3 22:51:44 10° NNW 22:57:07 42° ENE 23:01:22 16° SE
Nimbus 7 Rocket 4.4 22:51:36 10° N 22:57:33 72° WNW 22:57:33 72° WNW
ATLAS 3B R/B 4.2 22:52:04 10° NW 22:55:41 24° WNW 22:55:41 24° WNW
NOSS 3-3 (C) 3.7 22:59:37 71° NNW 22:59:37 71° NNW 23:05:15 10° NNE
USA 267 3.4 22:55:08 10° NE 23:01:36 58° SE 23:02:10 56° SSE
Cosmos 2333 Rocket 2.2 22:56:09 10° NNW 23:01:50 77° ENE 23:02:07 75° E
Cosmos 1777 Rocket 4.2 22:56:59 10° NNW 23:01:48 70° NNE 23:01:48 70° NNE
Cosmos 2082 Rocket 3.6 23:02:51 27° NW 23:02:56 27° NW 23:07:45 10° N
Resurs 1-4 Rocket 3.5 22:59:52 10° NE 23:04:31 30° E 23:05:50 27° ESE
SL-08 ROCKET BODY 4.5 23:01:55 10° NNW 23:07:23 61° WNW 23:07:23 61° WNW
NPP 3.6 23:04:19 10° NNE 23:09:33 84° NNW 23:09:33 84° NNW
BREEZE-M R/B 4.5 23:05:34 10° WNW 23:11:18 67° NNE 23:19:15 10° ESE
H-2A R/B 3.9 23:07:58 10° NE 23:12:08 24° E 23:14:28 18° SE
Cosmos 2322 Rocket 2.6 23:07:34 10° NNW 23:13:09 61° ENE 23:16:03 28° SE
BREEZE-M DEB (TANK) 3.7 23:12:58 34° NNE 23:13:15 35° NNE 23:18:51 10° E
Meteor 2-9 Rocket 4.0 23:08:03 10° N 23:13:23 78° E 23:13:35 76° ESE
Cosmos 2278 3.6 23:08:00 10° NNW 23:13:45 86° ENE 23:14:17 75° SE
Cosmos 1833 4.5 23:17:36 54° SE 23:18:19 58° ESE 23:23:54 10° NNE
SL-4 R/B 3.6 23:21:45 28° E 23:21:45 28° E 23:23:47 10° ESE
MOZ.5/SAFIR/RUBIN 5/SL-8 3.8 23:24:33 70° E 23:24:48 72° ENE 23:29:27 10° N
Cosmos 2219 Rocket 3.2 23:20:25 10° NNW 23:25:48 44° ENE 23:31:10 10° SE
COSMOS 2441 4.2 23:23:58 10° NNE 23:28:44 88° ENE 23:28:44 88° ENE
SL-16 R/B 2.5 23:23:15 10° NNW 23:27:50 50° WNW 23:27:50 50° WNW
Cosmos 1375 Rocket 4.5 23:29:10 59° WSW 23:30:23 74° WNW 23:36:57 10° NNE
ALOS 3.1 23:28:37 10° NNE 23:32:58 43° E 23:33:54 38° SE
Meteor 1-19 Rocket 4.0 23:32:36 70° WSW 23:33:01 74° W 23:38:37 10° N
NOAA 11 4.0 23:28:51 10° NNE 23:34:18 87° WNW 23:35:05 67° SSW
Cosmos 2221 3.4 23:35:54 37° NNW 23:35:54 37° NNW 23:38:45 10° N
ISS -1.8 23:37:43 26° E 23:37:43 26° E 23:39:33 10° ENE
USA 234 4.4 23:30:58 10° E 23:37:03 43° NNE 23:43:10 10° NW
Iridium 4 Rocket 3.2 23:36:50 74° SSE 23:37:14 83° E 23:42:16 10° N
DMSP B5D2-2 4.2 23:35:16 37° SSE 23:37:21 72° ENE 23:42:32 10° N
Meteor 1-11 Rocket 3.7 23:32:23 10° N 23:38:17 84° E 23:40:34 39° SSE
Envisat 3.0 23:36:53 10° NNE 23:41:58 75° ESE 23:43:05 53° S
Meteor 1-10 Rocket 4.1 23:41:03 59° SW 23:42:06 76° W 23:47:55 10° N
Aureole 1 Rocket 4.1 23:39:08 10° N 23:43:25 51° ENE 23:48:46 10° SE
ACS3 Solar Sail 3.2 23:39:45 10° NNW 23:44:07 21° WNW 23:44:46 21° WNW
Gbstr 26 Del rocket 3.2 23:44:13 48° N 23:44:49 54° NNE 23:48:30 10° ESE
Meteor 1-14 Rocket 4.3 23:39:23 10° NNW 23:44:54 51° W 23:45:04 51° W
IDEFIX/ARIANE 42P 3.5 23:41:45 10° N 23:46:15 31° WNW 23:46:20 31° WNW
ADEOS Rocket 3.7 23:41:28 10° N 23:48:59 63° WNW 23:52:01 39° SW
Cosmos 990 Rocket 3.8 23:47:08 10° NNW 23:52:16 74° WSW 23:53:43 47° S
Cosmos 1763 Rocket 3.9 23:52:00 45° W 23:52:36 47° WNW 23:57:43 10° N
Cosmos 1461 2.9 23:55:32 56° ESE 23:55:32 56° ESE 23:59:12 10° NE
BREEZE-M DEB (TANK) 4.3 23:41:39 10° WNW 23:55:35 55° N 23:59:28 10° E
